Regional Weather Roundup
Issued by NWS

Home | Current Version | Previous Version | Graphics & Text | Print | Product List | Glossary On
Versions: 1 2 3 4 5 6 7 8 9 10 11 12 13 14 15 16 17 18 19 20 21 22 23 24 25 26 27
000
ASUS45 KSLC 122310
RWRUT

UTAH REGIONAL WEATHER ROUNDUP
NATIONAL WEATHER SERVICE SALT LAKE CITY UT
400 PM MST TUE DEC 12 2017

UTZ001>011-023>025-130000-

NORTHERN UTAH

CITY           SKY/WX    TMP DP  RH WIND       PRES   REMARKS
BRIGHAM CITY   CLOUDY    25  23  91 CALM      30.49F
DUGWAY         CLEAR     33  21  60 W6        30.45F WCI  28
HILL AFB       PTCLDY    29  23  77 CALM      30.44F
LOGAN          CLEAR     27  19  72 W3        30.46F
OGDEN          PTCLDY    28  24  85 NW3       30.45F FOG
SALT LAKE CITY FOG       27  25  92 N6        30.47F VSB 1/4 WCI  20
TOOELE VALLEY    N/A     27  27 100 N3        30.48F FOG
WENDOVER       CLEAR     29  19  66 S3        30.48F
HEBER CITY       N/A     46  16  29 CALM      30.37F
WEST JORDAN    PTCLDY    28  26  93 NW7       30.47S WCI  20

$$

UTZ011>015-024>027-130000-

CENTRAL/NORTHEAST UTAH

CITY           SKY/WX    TMP DP  RH WIND       PRES   REMARKS
PROVO AIRPORT  CLEAR     35  21  56 NW5       30.44F WCI  31
MOAB/CANYONLAN CLEAR     48   5  17 CALM      30.35F
DELTA          CLEAR     39  14  35 CALM      30.42F
PRICE          CLEAR     51   5  15 S5        30.36F
RICHFIELD      CLEAR     48   3  15 NE6       30.38F
ROOSEVELT      CLEAR     43   9  24 CALM      30.41F
VERNAL         CLEAR     43  10  26 CALM      30.38F

$$

UTZ013>016-019>022-027-130000-

SOUTHERN UTAH

CITY           SKY/WX    TMP DP  RH WIND       PRES   REMARKS
BRYCE CANYON   SUNNY     54   3  12 SE7       30.40F
CEDAR CITY     SUNNY     50   8  18 NE3       30.36F
MILFORD        SUNNY     45  15  30 N9        30.39F
ST GEORGE      CLEAR     58   5  12 CALM      30.26F
HANKSVILLE     CLEAR     50   5  16 CALM      30.39F
KANAB          SUNNY     61   7  11 NE9G16    30.34F
BLANDING         N/A     48   4  16 SW5       30.42F

$$

REGIONAL REPORTS     COLORADO/ARIZONA

CITY           SKY/WX    TMP DP  RH WIND       PRES   REMARKS
CRAIG, CO      CLEAR     38  23  55 SW5       30.37F WCI  34
GRAND JUNCTION CLEAR     51  13  21 NW7       30.34F
RIFLE, CO      CLEAR     51  13  21 CALM      30.35F
MONTROSE, CO   CLEAR     51  10  19 N3        30.37F
CORTEZ, CO     CLEAR     49   4  16 SW6       30.34F
COLORADO CITY    N/A     68  10  10 E9        30.31S
PAGE, AZ       SUNNY     49  16  26 NE3       30.34F
GRAND CANYON   SUNNY     53   7  15 E14       30.36F
KINGMAN, AZ    SUNNY     66   3   8 NE8       30.22F
FLAGSTAFF, AZ  SUNNY     51  -1  11 E8        30.35F

$$

REGIONAL REPORTS    NEVADA/IDAHO/WYOMING

CITY           SKY/WX    TMP DP  RH WIND       PRES   REMARKS
LAS VEGAS, NV  MOSUNNY   68   1   7 CALM      30.20F
ELY, NY        SUNNY     58   3  11 N6        30.38F
ELKO, NV       SUNNY     40  21  46 S3        30.43F
POCATELLO, ID  CLOUDY    32  22  66 CALM      30.43F
BURLEY, ID     CLOUDY    25  21  85 W3        30.44F FOG
FORT BRIDGER,    N/A     54   4  13 W14       30.41F
EVANSTON, WY   CLEAR     51  11  20 SW9       30.40F
ROCK SPRINGS,  CLEAR     48   6  18 W7        30.34F

$$




USA.gov is the U.S. government's official web portal to all federal, state and local government web resources and services.